FW7086 Weather Reports


Display with metric or nautical units.
time (UTC)temp
F
wind
direction
speed
MPH
gust
MPH
rain 1hr
in
rain 24hr
in
rain mn
in
humidity
%
barometer
mb
20260906003755 73 110 4.0 6.0 0.00 0.00 0.00 89 1017.7
20260906003251 73 106 4.0 6.0 0.00 0.00 0.00 88 1017.6
20260906002747 73 62 4.0 9.0 0.00 0.00 0.00 88 1017.6
20260906002246 73 308 1.0 1.0 0.00 0.00 0.00 89 1017.3
20260906001742 73 71 6.0 7.0 0.00 0.00 0.00 88 1017.4
20260906001237 73 28 3.0 6.0 0.00 0.00 0.00 88 1017.6
20260906000732 73 6 2.0 3.0 0.00 0.00 0.00 88 1017.4
20260906000234 73 10 6.0 9.0 0.00 0.00 0.00 88 1017.5
20260905235727 73 52 2.0 3.0 0.00 0.00 0.00 88 1017.6
20260905235226 73 24 1.0 1.0 0.00 0.00 0.00 88 1017.6
20260905234722 73 80 1.0 1.0 0.00 0.00 0.00 89 1017.6
20260905234217 73 7 3.0 7.0 0.00 0.00 0.00 89 1017.7
20260905233713 73 27 2.0 3.0 0.00 0.00 0.00 89 1017.5
20260905233212 73 72 3.0 6.0 0.00 0.00 0.00 89 1017.5
20260905232707 73 7 8.0 11.0 0.00 0.00 0.00 89 1017.1
20260905232203 73 307 5.0 7.0 0.00 0.00 0.00 89 1017.2
20260905231658 73 347 4.0 7.0 0.00 0.00 0.00 89 1017.3
20260905231154 74 76 7.0 10.0 0.00 0.00 0.00 89 1017.4
20260905230650 74 28 3.0 6.0 0.00 0.00 0.00 88 1017.1
20260905230147 74 52 4.0 6.0 0.00 0.00 0.00 87 1017.1
20260905225647 74 16 2.0 3.0 0.00 0.00 0.00 87 1017.2
20260905225142 75 304 7.0 8.0 0.00 0.00 0.00 86 1017.2
20260905224642 75 28 7.0 9.0 0.00 0.00 0.00 86 1017.1
20260905224142 75 36 2.0 2.0 0.00 0.00 0.00 86 1017.2
20260905223639 75 72 6.0 8.0 0.00 0.00 0.00 86 1017.1
20260905223135 76 34 3.0 6.0 0.00 0.00 0.00 85 1017.1
20260905222631 77 348 5.0 6.0 0.00 0.00 0.00 84 1017.1
20260905222125 77 358 6.0 6.0 0.00 0.00 0.00 84 1017.4
20260905221621 77 43 4.0 7.0 0.00 0.00 0.00 83 1017.1
20260905221117 77 76 1.0 3.0 0.00 0.00 0.00 84 1017.1
20260905220613 77 28 3.0 4.0 0.00 0.00 0.00 83 1017.1
20260905220109 79 358 3.0 4.0 0.00 0.00 0.00 80 1016.8
20260905215608 79 90 3.0 6.0 0.00 0.00 0.00 80 1016.9
20260905215104 79 67 2.0 3.0 0.00 0.00 0.00 80 1017.1
20260905214601 79 53 2.0 3.0 0.00 0.00 0.00 79 1016.9
20260905214100 79 9 2.0 3.0 0.00 0.00 0.00 79 1016.9
20260905213555 80 62 6.0 8.0 0.00 0.00 0.00 77 1016.7
20260905213051 79 357 2.0 3.0 0.00 0.00 0.00 79 1016.8
20260905212551 80 18 1.0 1.0 0.00 0.00 0.00 78 1016.4
20260905212050 80 14 5.0 7.0 0.00 0.00 0.00 77 1016.5
20260905211546 80 60 2.0 3.0 0.00 0.00 0.00 77 1016.5
20260905211041 81 80 1.0 2.0 0.00 0.00 0.00 76 1016.5
20260905210537 80 351 2.0 2.0 0.00 0.00 0.00 77 1016.5
20260905210032 80 8 2.0 3.0 0.00 0.00 0.00 76 1016.7
20260905205531 81 106 4.0 7.0 0.00 0.00 0.00 75 1016.7
20260905205030 81 319 6.0 8.0 0.00 0.00 0.00 73 1016.5
20260905204525 81 65 2.0 2.0 0.00 0.00 0.00 74 1016.9
20260905204021 81 358 3.0 4.0 0.00 0.00 0.00 75 1016.4
20260905203520 80 127 2.0 2.0 0.00 0.00 0.00 76 1016.8
20260905203016 78 85 2.0 3.0 0.00 0.00 0.00 80 1016.4
20260905202511 78 35 6.0 8.0 0.00 0.00 0.00 80 1016.8
20260905202006 78 349 6.0 10.0 0.00 0.00 0.00 79 1016.9
20260905201502 79 19 4.0 4.0 0.00 0.00 0.00 79 1016.8
20260905201001 79 39 2.0 3.0 0.00 0.00 0.00 79 1016.8
20260905200457 79 16 4.0 4.0 0.00 0.00 0.00 78 1016.8
20260905195955 80 357 5.0 7.0 0.00 0.00 0.00 77 1017.0
20260905195450 79 40 4.0 6.0 0.00 0.00 0.00 78 1016.9
20260905194946 79 6 3.0 6.0 0.00 0.00 0.00 78 1016.8
20260905194445 79 34 0.0 0.0 0.00 0.00 0.00 80 1016.8
20260905193940 79 1 6.0 9.0 0.00 0.00 0.00 79 1016.8
20260905193440 80 328 4.0 6.0 0.00 0.00 0.00 78 1017.0
20260905192936 79 333 3.0 4.0 0.00 0.00 0.00 79 1016.7
20260905192431 80 306 1.0 2.0 0.00 0.00 0.00 79 1016.8
20260905191926 79 339 5.0 7.0 0.00 0.00 0.00 78 1017.1
20260905191426 79 75 3.0 4.0 0.00 0.00 0.00 80 1017.0
20260905190925 79 354 9.0 10.0 0.00 0.00 0.00 80 1017.1
20260905190423 79 39 2.0 3.0 0.00 0.00 0.00 80 1016.9
20260905185922 78 45 5.0 8.0 0.00 0.00 0.00 81 1017.2
20260905185417 79 5 2.0 6.0 0.00 0.00 0.00 81 1017.1
20260905184916 79 1 5.0 6.0 0.00 0.00 0.00 81 1017.1
20260905184411 79 115 4.0 7.0 0.00 0.00 0.00 80 1017.0
20260905183909 80 323 2.0 3.0 0.00 0.00 0.00 80 1017.1
20260905183404 79 4 1.0 3.0 0.00 0.00 0.00 80 1017.3
20260905182859 79 79 2.0 2.0 0.00 0.00 0.00 80 1017.2
20260905182358 79 30 1.0 2.0 0.00 0.00 0.00 81 1017.3
20260905181855 79 13 4.0 6.0 0.00 0.00 0.00 80 1017.2
20260905181354 79 22 4.0 6.0 0.00 0.00 0.00 81 1017.1
20260905180853 78 10 3.0 3.0 0.00 0.00 0.00 82 1017.1
20260905180349 78 29 2.0 4.0 0.00 0.00 0.00 82 1017.2
20260905175844 78 310 3.0 4.0 0.00 0.00 0.00 82 1016.9
20260905175343 79 23 5.0 7.0 0.00 0.00 0.00 81 1017.2
20260905174839 79 21 5.0 7.0 0.00 0.00 0.00 81 1017.0
20260905174334 79 338 4.0 4.0 0.00 0.00 0.00 81 1017.1
20260905173830 79 71 4.0 6.0 0.00 0.00 0.00 80 1016.9
20260905173326 80 39 2.0 3.0 0.00 0.00 0.00 80 1017.0
20260905172826 80 48 5.0 6.0 0.00 0.00 0.00 79 1017.1
20260905172324 80 107 3.0 4.0 0.00 0.00 0.00 79 1017.2
20260905171820 80 333 5.0 8.0 0.00 0.00 0.00 79 1016.9
20260905171317 82 336 2.0 3.0 0.00 0.00 0.00 76 1016.8
20260905170813 81 99 2.0 3.0 0.00 0.00 0.00 78 1017.0
20260905170308 80 70 0.0 1.0 0.00 0.00 0.00 79 1016.8
20260905165807 80 44 3.0 6.0 0.00 0.00 0.00 79 1017.1
20260905165306 79 1 3.0 4.0 0.00 0.00 0.00 81 1017.2
20260905164803 80 284 2.0 3.0 0.00 0.00 0.00 81 1017.3
20260905164258 80 69 2.0 3.0 0.00 0.00 0.00 80 1017.2
20260905163753 80 359 2.0 3.0 0.00 0.00 0.00 81 1017.3
20260905163250 80 27 2.0 3.0 0.00 0.00 0.00 81 1017.2
20260905162746 80 23 4.0 6.0 0.00 0.00 0.00 81 1017.0
20260905162245 79 279 2.0 6.0 0.00 0.00 0.00 82 1017.3
20260905161740 80 311 1.0 2.0 0.00 0.00 0.00 81 1017.2
20260905161239 80 340 1.0 2.0 0.00 0.00 0.00 81 1017.2
20260905160737 79 31 1.0 1.0 0.00 0.00 0.00 83 1017.3
20260905160237 80 345 2.0 2.0 0.00 0.00 0.00 82 1017.0
20260905155732 80 6 5.0 6.0 0.00 0.00 0.00 80 1017.0
20260905155231 81 53 2.0 3.0 0.00 0.00 0.00 80 1017.1
20260905154725 81 38 2.0 3.0 0.00 0.00 0.00 80 1016.9
20260905154222 81 78 2.0 2.0 0.00 0.00 0.00 80 1016.9
20260905153717 81 340 4.0 7.0 0.00 0.00 0.00 80 1016.9
20260905153213 81 46 1.0 2.0 0.00 0.00 0.00 79 1016.5
20260905152713 82 191 2.0 3.0 0.00 0.00 0.00 77 1016.5
20260905152207 81 100 2.0 6.0 0.00 0.00 0.00 79 1016.4
20260905151707 80 147 5.0 7.0 0.00 0.00 0.00 79 1016.4
20260905151203 80 336 3.0 3.0 0.00 0.00 0.00 79 1016.3
20260905150658 80 272 2.0 4.0 0.00 0.00 0.00 80 1016.4
20260905150156 80 131 1.0 2.0 0.00 0.00 0.00 79 1016.4
20260905145654 79 21 0.0 1.0 0.00 0.00 0.00 80 1016.5
20260905145149 79 9 3.0 4.0 0.00 0.00 0.00 82 1016.3
20260905144649 79 348 2.0 3.0 0.00 0.00 0.00 82 1016.3
20260905144149 80 37 2.0 3.0 0.00 0.00 0.00 82 1016.2
20260905143648 79 49 3.0 3.0 0.00 0.00 0.00 83 1016.4
20260905143149 78 3 2.0 3.0 0.00 0.00 0.00 85 1016.4
20260905142647 77 20 4.0 6.0 0.00 0.00 0.00 86 1016.4
20260905142147 78 72 5.0 8.0 0.00 0.00 0.00 85 1016.5
20260905141642 78 27 4.0 4.0 0.00 0.00 0.00 86 1016.1
20260905141138 78 70 2.0 3.0 0.00 0.00 0.00 87 1016.1
20260905140633 79 56 3.0 3.0 0.00 0.00 0.00 83 1015.9
20260905140133 80 69 1.0 1.0 0.00 0.00 0.00 83 1016.1
20260905135628 79 23 2.0 3.0 0.00 0.00 0.00 83 1016.2
20260905135123 78 41 2.0 2.0 0.00 0.00 0.00 86 1016.0
20260905134618 78 43 2.0 2.0 0.00 0.00 0.00 87 1016.1
20260905134116 78 343 6.0 9.0 0.00 0.00 0.00 87 1016.2
20260905133613 78 62 1.0 1.0 0.00 0.00 0.00 87 1016.4
20260905133112 77 14 1.0 1.0 0.00 0.00 0.00 89 1016.5
20260905132612 77 13 2.0 2.0 0.00 0.00 0.00 90 1016.5
20260905132107 76 352 6.0 8.0 0.00 0.00 0.00 91 1016.2
20260905131602 75 358 6.0 8.0 0.00 0.00 0.00 94 1016.2
20260905131057 75 47 2.0 2.0 0.00 0.00 0.00 95 1016.1
20260905130556 74 345 1.0 1.0 0.00 0.00 0.00 96 1016.1
20260905130051 74 19 1.0 1.0 0.00 0.00 0.00 97 1016.1
20260905125551 74 346 2.0 2.0 0.00 0.00 0.00 97 1016.0
20260905125047 74 1 3.0 4.0 0.00 0.00 0.00 97 1015.7
20260905124543 74 47 0.0 0.0 0.00 0.00 0.00 97 1015.8
20260905124039 74 36 2.0 2.0 0.00 0.00 0.00 97 1015.8
20260905123534 74 45 1.0 1.0 0.00 0.00 0.00 97 1015.5
20260905123031 74 54 0.0 2.0 0.00 0.00 0.00 96 1015.4
20260905122530 73 344 0.0 0.0 0.00 0.00 0.00 96 1015.4
20260905122025 73 349 0.0 1.0 0.00 0.00 0.00 96 1015.5
20260905121520 73 33 1.0 1.0 0.00 0.00 0.00 96 1015.4
20260905121015 73 90 1.0 2.0 0.00 0.00 0.00 96 1015.5
20260905120514 73 23 2.0 3.0 0.00 0.00 0.00 96 1015.6
20260905120011 73 14 1.0 2.0 0.00 0.00 0.00 96 1015.4
20260905115509 74 33 1.0 1.0 0.00 0.00 0.00 96 1015.1
20260905115004 74 337 3.0 3.0 0.00 0.00 0.00 96 1015.0
20260905114503 74 46 1.0 1.0 0.00 0.00 0.00 96 1014.9
20260905114002 74 70 0.0 0.0 0.00 0.00 0.00 96 1014.9
20260905113458 74 319 5.0 6.0 0.00 0.00 0.00 96 1014.8
20260905112953 74 20 0.0 0.0 0.00 0.00 0.00 96 1014.7
20260905112448 74 40 0.0 0.0 0.00 0.00 0.00 96 1014.6
20260905111943 74 51 0.0 0.0 0.00 0.00 0.00 96 1014.4
20260905111437 74 26 0.0 0.0 0.00 0.00 0.00 96 1014.4
20260905110932 74 4 0.0 0.0 0.00 0.00 0.00 95 1014.4
20260905110426 74 53 0.0 0.0 0.00 0.00 0.00 95 1014.4
20260905105926 75 85 2.0 3.0 0.00 0.00 0.00 95 1014.2
20260905105426 75 25 0.0 0.0 0.00 0.00 0.00 94 1014.6
20260905104926 75 61 0.0 0.0 0.00 0.00 0.00 94 1014.6
20260905104422 75 44 0.0 0.0 0.00 0.00 0.00 94 1014.6
20260905103921 75 337 1.0 2.0 0.00 0.00 0.00 94 1014.6
20260905103417 76 30 1.0 1.0 0.00 0.00 0.00 94 1014.5
20260905102913 76 2 2.0 3.0 0.00 0.00 0.00 94 1014.7
20260905102410 76 19 1.0 1.0 0.00 0.00 0.00 94 1014.6
20260905101909 77 28 1.0 2.0 0.00 0.00 0.00 94 1014.6
20260905101407 77 45 1.0 2.0 0.00 0.00 0.00 93 1014.6
20260905100902 77 36 1.0 2.0 0.00 0.00 0.00 93 1014.4
20260905100358 77 54 0.0 0.0 0.00 0.00 0.00 93 1014.3
20260905095857 77 25 2.0 2.0 0.00 0.00 0.00 93 1014.5
20260905095352 77 39 1.0 2.0 0.00 0.00 0.00 93 1014.4
20260905094847 77 6 0.0 0.0 0.00 0.00 0.00 93 1014.3
20260905094342 77 23 0.0 0.0 0.00 0.00 0.00 93 1014.1
20260905093841 77 23 0.0 0.0 0.00 0.00 0.00 93 1014.1
20260905093337 77 44 0.0 0.0 0.00 0.00 0.00 93 1014.3
20260905092833 77 44 0.0 0.0 0.00 0.00 0.00 93 1014.0
20260905092333 77 71 0.0 0.0 0.00 0.00 0.00 93 1014.0
20260905091828 77 65 0.0 0.0 0.00 0.00 0.00 93 1014.1
20260905091327 77 54 0.0 0.0 0.00 0.00 0.00 92 1014.4
20260905090826 77 60 0.0 0.0 0.00 0.00 0.00 92 1014.1
20260905090322 78 42 0.0 0.0 0.00 0.00 0.00 91 1014.3
20260905085821 78 49 0.0 0.0 0.00 0.00 0.00 91 1014.2
20260905085316 78 41 0.0 0.0 0.00 0.00 0.00 91 1014.2
20260905084812 78 24 0.0 0.0 0.00 0.00 0.00 91 1014.2
20260905084311 78 24 0.0 0.0 0.00 0.00 0.00 91 1014.1
20260905083806 78 50 0.0 0.0 0.00 0.00 0.00 91 1014.1
20260905083302 78 52 0.0 0.0 0.00 0.00 0.00 91 1014.1
20260905082757 78 31 0.0 0.0 0.00 0.00 0.00 90 1014.2
20260905082254 78 33 0.0 0.0 0.00 0.00 0.00 90 1014.2
20260905081754 78 33 0.0 0.0 0.00 0.00 0.00 90 1014.2
20260905081249 78 78 0.0 0.0 0.00 0.00 0.00 90 1014.1
20260905080748 78 48 0.0 0.0 0.00 0.00 0.00 91 1014.1
20260905080248 77 28 0.0 0.0 0.00 0.00 0.00 91 1013.9
20260905075747 78 348 0.0 0.0 0.00 0.00 0.00 91 1014.2
20260905075246 78 348 0.0 0.0 0.00 0.00 0.00 90 1014.0
20260905074746 78 348 0.0 0.0 0.00 0.00 0.00 90 1014.0
20260905074242 78 345 0.0 0.0 0.00 0.00 0.00 90 1014.0
20260905073737 78 339 0.0 0.0 0.00 0.00 0.00 90 1014.2
20260905073232 78 339 0.0 0.0 0.00 0.00 0.00 90 1013.9
20260905072731 78 339 0.0 0.0 0.00 0.00 0.00 90 1014.2
20260905072227 78 339 0.0 0.0 0.00 0.00 0.00 89 1014.1
20260905071724 78 339 0.0 0.0 0.00 0.00 0.00 89 1014.2
20260905071220 78 223 0.0 0.0 0.00 0.00 0.00 89 1014.1
20260905070714 78 103 0.0 0.0 0.00 0.00 0.00 89 1014.1
20260905070210 78 29 0.0 0.0 0.00 0.00 0.00 89 1014.1
20260905065709 78 28 0.0 0.0 0.00 0.00 0.00 89 1014.1
20260905065203 78 68 0.0 0.0 0.00 0.00 0.00 88 1014.3
20260905064658 78 102 0.0 0.0 0.00 0.00 0.00 88 1014.2
20260905064154 78 78 0.0 0.0 0.00 0.00 0.00 88 1014.4
20260905063652 78 66 0.0 0.0 0.00 0.00 0.00 88 1014.5
20260905063149 79 58 0.0 0.0 0.00 0.00 0.00 88 1014.6
20260905062644 79 58 0.0 0.0 0.00 0.00 0.00 87 1014.6
20260905062143 79 23 0.0 0.0 0.00 0.00 0.00 87 1014.5
20260905061638 79 39 0.0 0.0 0.00 0.00 0.00 87 1014.6
20260905061138 79 22 0.0 0.0 0.00 0.00 0.00 87 1014.5
20260905060633 79 24 0.0 0.0 0.00 0.00 0.00 87 1014.6
20260905060130 79 15 0.0 0.0 0.00 0.00 0.00 87 1014.6
20260905055628 79 51 0.0 0.0 0.00 0.00 0.00 88 1014.5
20260905055124 79 52 0.0 0.0 0.00 0.00 0.00 87 1014.4
20260905054619 79 65 0.0 0.0 0.00 0.00 0.00 87 1014.5
20260905054115 79 24 0.0 0.0 0.00 0.00 0.00 87 1014.6
20260905053614 79 8 0.0 0.0 0.00 0.00 0.00 87 1014.5
20260905053109 79 32 0.0 0.0 0.00 0.00 0.00 87 1014.5
20260905052609 79 348 0.0 0.0 0.00 0.00 0.00 87 1014.7
20260905052103 79 38 0.0 0.0 0.00 0.00 0.00 86 1014.5
20260905051559 79 2 0.0 0.0 0.00 0.00 0.00 86 1014.5
20260905051056 79 52 0.0 0.0 0.00 0.00 0.00 86 1014.6
20260905050552 79 17 0.0 0.0 0.00 0.00 0.00 86 1014.6
20260905050049 80 37 0.0 0.0 0.00 0.00 0.00 85 1014.4
20260905045548 80 74 0.0 0.0 0.00 0.00 0.00 85 1014.5
20260905045043 80 355 0.0 0.0 0.00 0.00 0.00 85 1014.3
20260905044543 80 56 0.0 0.0 0.00 0.00 0.00 84 1014.4
20260905044038 80 65 0.0 0.0 0.00 0.00 0.00 85 1014.7
20260905043537 80 71 0.0 0.0 0.00 0.00 0.00 85 1014.6
20260905043032 80 56 0.0 0.0 0.00 0.00 0.00 85 1014.7
20260905042531 80 119 2.0 3.0 0.00 0.00 0.00 85 1014.7
20260905042027 80 66 2.0 3.0 0.00 0.00 0.00 85 1014.8
20260905041522 80 29 0.0 0.0 0.00 0.00 0.00 85 1014.9
20260905041018 80 48 0.0 1.0 0.00 0.00 0.00 84 1014.9
20260905040517 80 68 1.0 2.0 0.00 0.00 0.00 84 1014.8
20260905040015 80 63 0.0 1.0 0.00 0.00 0.00 84 1014.6
20260905035511 80 55 2.0 2.0 0.00 0.00 0.00 84 1014.7
20260905035008 80 358 1.0 1.0 0.00 0.00 0.00 83 1014.6
20260905034504 81 69 2.0 2.0 0.00 0.00 0.00 82 1014.4
20260905034003 82 23 3.0 3.0 0.00 0.00 0.00 81 1014.7
20260905033503 82 17 2.0 3.0 0.00 0.00 0.00 80 1014.9
20260905032958 82 9 1.0 2.0 0.00 0.00 0.00 78 1014.6
20260905032453 82 5 0.0 0.0 0.00 0.00 0.00 78 1014.8
20260905031948 82 25 0.0 0.0 0.00 0.00 0.00 78 1014.8
20260905031444 82 23 1.0 1.0 0.00 0.00 0.00 78 1014.8
20260905030939 83 60 0.0 0.0 0.00 0.00 0.00 77 1015.0
20260905030434 83 10 1.0 1.0 0.00 0.00 0.00 77 1014.9
20260905025933 83 0 0.0 0.0 0.00 0.00 0.00 76 1015.1
20260905025428 83 6 1.0 1.0 0.00 0.00 0.00 76 1015.3
20260905024925 84 59 0.0 0.0 0.00 0.00 0.00 75 1015.3
20260905024425 84 53 0.0 0.0 0.00 0.00 0.00 75 1015.0
20260905023921 84 54 0.0 0.0 0.00 0.00 0.00 75 1014.9
20260905023416 84 54 0.0 0.0 0.00 0.00 0.00 75 1014.9
20260905022915 85 85 1.0 1.0 0.00 0.00 0.00 75 1015.0
20260905022411 86 60 0.0 0.0 0.00 0.00 0.00 74 1014.8
20260905021906 86 79 1.0 2.0 0.00 0.00 0.00 74 1014.9
20260905021406 87 7 1.0 1.0 0.00 0.00 0.00 73 1014.8
20260905020901 87 17 0.0 0.0 0.00 0.00 0.00 73 1014.9
20260905020401 87 46 0.0 0.0 0.00 0.00 0.00 74 1014.9
20260905015901 87 45 0.0 0.0 0.00 0.00 0.00 73 1014.8
20260905015359 87 23 0.0 0.0 0.00 0.00 0.00 72 1014.7
20260905014859 87 266 0.0 0.0 0.00 0.00 0.00 72 1014.6
20260905014354 88 31 0.0 0.0 0.00 0.00 0.00 72 1014.5
20260905013855 88 16 0.0 0.0 0.00 0.00 0.00 72 1014.4
20260905013352 88 38 0.0 0.0 0.00 0.00 0.00 72 1014.5
20260905012852 88 7 0.0 0.0 0.00 0.00 0.00 72 1014.1
20260905012347 88 135 0.0 0.0 0.00 0.00 0.00 72 1014.0
20260905011844 88 70 0.0 0.0 0.00 0.00 0.00 72 1014.4
20260905011339 88 178 0.0 0.0 0.00 0.00 0.00 71 1014.1
20260905010835 88 78 0.0 0.0 0.00 0.00 0.00 71 1014.1
20260905010329 88 48 0.0 0.0 0.00 0.00 0.00 71 1013.7
20260905005826 88 152 0.0 0.0 0.00 0.00 0.00 71 1013.8
20260905005316 89 155 0.0 0.0 0.00 0.00 0.00 70 1013.8
20260905004816 89 178 0.0 1.0 0.00 0.00 0.00 70 1013.9
20260905004310 89 118 1.0 1.0 0.00 0.00 0.00 70 1013.8